Location: Unspecified
(0.0000°N, 0.0000°E)
Time: 01:02:51
(UTC+02:00)

AO-40 - Visible Passes

Search period start: 31 July 2015 00:00
Search period end: 10 August 2015 00:00
Orbit: 1056 x 58765 km, 9.4° (Epoch: 29 July)

Date Brightness Start Highest point End Pass type
(mag) Time Alt. Az. Time Alt. Az. Time Alt. Az.
03 Aug ? 00:26:19 22° E 00:26:19 22° E 15:34:28 10° W visible
03 Aug ? 18:27:09 10° W 18:49:16 61° SSW 13:45:36 10° E daylight
07 Aug ? 00:01:31 17° E 00:01:31 17° E 18:27:22 10° ESE visible
06 Aug ? 23:27:24 10° WSW 18:21:29 64° SSW 13:17:41 10° E visible
